Regional Weather Roundup
Issued by NWS Spokane, WA

Home | Current Version | Previous Version | Text Only | Print | Product List | Glossary On
Versions: 1 2 3 4 5 6 7 8 9 10 11 12 13 14 15 16 17 18 19 20 21 22 23 24 25 26 27 28 29 30 31 32 33 34 35 36 37 38 39 40 41 42 43 44 45 46 47 48 49 50
000
NZUS01 KOTX 020610
RWROTX
EASTERN WASHINGTON/NORTHERN IDAHO ROUNDUP
NATIONAL WEATHER SERVICE, SPOKANE WA
1100 PM PDT TUE SEP 01 2015

Note: "fair" indicated few or no clouds below 12,000 feet with no
significant weather and/or obstructions to visibility.

...NORTHEAST WASHINGTON AND NORTHERN IDAHO PANHANDLE...

CITY           SKY/WX    TMP DP  RH WIND       PRES   REMARKS
SPOKANE INTL   CLOUDY    64  44  48 S6        29.74F
SPOKANE DOWNTO CLOUDY    62  45  53 CALM      29.74F
COEUR D ALENE  CLOUDY    61  43  51 SW3       29.74F
DEER PARK      CLOUDY    58  44  60 CALM      29.73F
SANDPOINT      CLOUDY    54  46  76 CALM      29.73F
BONNERS FERRY  FAIR      57  48  72 CALM      29.73F

...SOUTHEAST WASHINGTON AND SOUTHERN IDAHO PANHANDLE...

CITY           SKY/WX    TMP DP  RH WIND       PRES   REMARKS
WALLA WALLA    CLOUDY    69  45  41 S9        29.78R
PULLMAN/MOSCOW CLOUDY    60  35  39 CALM      29.80S
LEWISTON       MOCLDY    68  36  30 S5        29.73S
LOWELL           N/A     59  54  83 CALM      29.76R

...COLUMBIA BASIN...

CITY           SKY/WX    TMP DP  RH WIND       PRES   REMARKS
EPHRATA        CLOUDY    65  47  52 S6        29.69R
MOSES LAKE     CLOUDY    67  49  52 W5        29.70R
TRI CITIES     CLOUDY    71  46  40 SW8       29.74R
HERMISTON      CLOUDY    69  48  47 SW9       29.76R
PENDLETON      CLOUDY    67  45  45 W16       29.79R

...EAST SLOPES CASCADES...

CITY           SKY/WX    TMP DP  RH WIND       PRES   REMARKS
THE DALLES     CLOUDY    68  54  60 NW13      29.76F
YAKIMA         CLOUDY    72  46  39 VRB6      29.73R
ELLENSBURG     CLOUDY    61  47  59 NW20G28   29.75S
WENATCHEE      CLOUDY    67  48  50 NW12      29.71R
OMAK           CLOUDY    67  44  43 S8        29.66S

...SOUTHERN BRITISH COLUMBIA...

CITY           SKY/WX    TMP DP  RH WIND       PRES   REMARKS
PENTICTON      MOCLDY    57  50  77 NE7       29.63F
CRANBROOK      MOCLDY    54  41  62 S5        29.75S

...WESTERN MONTANA...

CITY           SKY/WX    TMP DP  RH WIND       PRES   REMARKS
MISSOULA       PTCLDY    61  38  42 N5        29.78R

...NEIGHBORING CITIES...

CITY           SKY/WX    TMP DP  RH WIND       PRES   REMARKS
SEATTLE        CLOUDY    58  54  86 S9        29.81F
CALGARY        MOCLDY    59  36  41 SW8       29.64F



USA.gov is the U.S. government's official web portal to all federal, state and local government web resources and services.